Time,TemperatureF,DewpointF,PressureIn,WindDirection,WindDirectionDegrees,WindSpeedMPH,WindSpeedGustMPH,Humidity,HourlyPrecipIn,Conditions,Clouds,dailyrainin,SoftwareType,DateUTC
2013-03-04 00:01:00,18.0,11.4,30.07,North,-999,0.0,0.0,75,0.00,,,-99.99,WeatherLink 5.7,2013-03-04 05:01:00,
2013-03-04 00:11:00,17.8,11.2,30.07,NNW,337,0.0,2.0,75,0.00,,,-99.99,WeatherLink 5.7,2013-03-04 05:11:00,
2013-03-04 00:21:00,17.7,11.4,30.07,NNW,337,2.0,3.0,76,0.00,,,-99.99,WeatherLink 5.7,2013-03-04 05:21:00,
2013-03-04 00:31:00,17.8,11.8,30.07,WSW,247,2.0,4.0,77,0.00,,,-99.99,WeatherLink 5.7,2013-03-04 05:31:00,
2013-03-04 00:41:00,17.9,11.9,30.07,WSW,247,1.0,4.0,77,0.00,,,-99.99,WeatherLink 5.7,2013-03-04 05:41:00,
2013-03-04 00:51:00,17.8,11.8,30.07,WSW,247,2.0,4.0,77,0.00,,,-99.99,WeatherLink 5.7,2013-03-04 05:51:00,
2013-03-04 01:01:00,17.9,12.2,30.08,West,270,2.0,5.0,78,0.00,,,-99.99,WeatherLink 5.7,2013-03-04 06:01:00,
2013-03-04 01:11:00,18.1,12.4,30.08,West,270,1.0,4.0,78,0.00,,,-99.99,WeatherLink 5.7,2013-03-04 06:11:00,
2013-03-04 01:21:00,18.2,12.5,30.09,West,270,1.0,3.0,78,0.00,,,-99.99,WeatherLink 5.7,2013-03-04 06:21:00,
2013-03-04 01:31:00,18.0,12.0,30.09,West,270,2.0,4.0,77,0.00,,,-99.99,WeatherLink 5.7,2013-03-04 06:31:00,
2013-03-04 01:41:00,17.8,11.8,30.10,West,270,3.0,4.0,77,0.00,,,-99.99,WeatherLink 5.7,2013-03-04 06:41:00,
2013-03-04 01:51:00,17.5,11.5,30.10,West,270,3.0,5.0,77,0.00,,,-99.99,WeatherLink 5.7,2013-03-04 06:51:00,
2013-03-04 02:01:00,17.3,11.0,30.10,West,270,3.0,5.0,76,0.00,,,-99.99,WeatherLink 5.7,2013-03-04 07:01:00,
2013-03-04 02:11:00,17.4,11.1,30.10,West,270,3.0,5.0,76,0.00,,,-99.99,WeatherLink 5.7,2013-03-04 07:11:00,
2013-03-04 02:21:00,17.5,11.2,30.10,WNW,292,2.0,6.0,76,0.00,,,-99.99,WeatherLink 5.7,2013-03-04 07:21:00,
2013-03-04 02:31:00,17.8,11.2,30.09,WNW,292,2.0,4.0,75,0.00,,,-99.99,WeatherLink 5.7,2013-03-04 07:31:00,
2013-03-04 02:41:00,17.8,11.2,30.09,WNW,292,2.0,4.0,75,0.00,,,-99.99,WeatherLink 5.7,2013-03-04 07:41:00,
2013-03-04 02:51:00,17.8,10.9,30.09,WNW,292,2.0,4.0,74,0.00,,,-99.99,WeatherLink 5.7,2013-03-04 07:51:00,
2013-03-04 03:01:00,17.8,10.9,30.08,WNW,292,1.0,4.0,74,0.00,,,-99.99,WeatherLink 5.7,2013-03-04 08:01:00,
2013-03-04 03:11:00,17.6,10.4,30.08,WNW,292,1.0,4.0,73,0.00,,,-99.99,WeatherLink 5.7,2013-03-04 08:11:00,
2013-03-04 03:21:00,17.6,10.4,30.09,WNW,292,2.0,4.0,73,0.00,,,-99.99,WeatherLink 5.7,2013-03-04 08:21:00,
2013-03-04 03:31:00,17.6,10.4,30.09,WNW,292,2.0,4.0,73,0.00,,,-99.99,WeatherLink 5.7,2013-03-04 08:31:00,
2013-03-04 03:41:00,17.4,9.9,30.08,WNW,292,1.0,3.0,72,0.00,,,-99.99,WeatherLink 5.7,2013-03-04 08:41:00,
2013-03-04 03:51:00,17.3,10.1,30.08,WNW,292,0.0,2.0,73,0.00,,,-99.99,WeatherLink 5.7,2013-03-04 08:51:00,
2013-03-04 04:01:00,17.1,9.9,30.08,WNW,292,0.0,2.0,73,0.00,,,-99.99,WeatherLink 5.7,2013-03-04 09:01:00,
2013-03-04 04:11:00,16.7,9.2,30.09,WNW,292,1.0,3.0,72,0.00,,,-99.99,WeatherLink 5.7,2013-03-04 09:11:00,
2013-03-04 04:21:00,16.3,9.2,30.09,WNW,292,1.0,3.0,73,0.00,,,-99.99,WeatherLink 5.7,2013-03-04 09:21:00,
2013-03-04 04:31:00,16.0,8.9,30.10,WNW,292,1.0,4.0,73,0.00,,,-99.99,WeatherLink 5.7,2013-03-04 09:31:00,
2013-03-04 04:41:00,15.9,8.8,30.10,WNW,292,0.0,2.0,73,0.00,,,-99.99,WeatherLink 5.7,2013-03-04 09:41:00,
2013-03-04 04:51:00,15.7,8.6,30.11,North,-999,0.0,1.0,73,0.00,,,-99.99,WeatherLink 5.7,2013-03-04 09:51:00,
2013-03-04 05:01:00,15.5,8.7,30.11,WNW,292,0.0,2.0,74,0.00,,,-99.99,WeatherLink 5.7,2013-03-04 10:01:00,
2013-03-04 05:11:00,15.2,8.4,30.11,WNW,292,0.0,2.0,74,0.00,,,-99.99,WeatherLink 5.7,2013-03-04 10:11:00,
2013-03-04 05:21:00,15.0,8.2,30.12,WNW,292,1.0,2.0,74,0.00,,,-99.99,WeatherLink 5.7,2013-03-04 10:21:00,
2013-03-04 05:31:00,14.8,8.0,30.12,WNW,292,2.0,3.0,74,0.00,,,-99.99,WeatherLink 5.7,2013-03-04 10:31:00,
2013-03-04 05:41:00,14.8,8.6,30.13,WNW,292,2.0,4.0,76,0.00,,,-99.99,WeatherLink 5.7,2013-03-04 10:41:00,
2013-03-04 05:51:00,14.7,8.5,30.13,WNW,292,2.0,4.0,76,0.00,,,-99.99,WeatherLink 5.7,2013-03-04 10:51:00,
2013-03-04 06:01:00,14.7,8.5,30.13,WNW,292,1.0,3.0,76,0.00,,,-99.99,WeatherLink 5.7,2013-03-04 11:01:00,
2013-03-04 06:11:00,14.7,8.5,30.14,WNW,292,2.0,5.0,76,0.00,,,-99.99,WeatherLink 5.7,2013-03-04 11:11:00,
2013-03-04 06:21:00,14.7,8.8,30.14,WNW,292,3.0,5.0,77,0.00,,,-99.99,WeatherLink 5.7,2013-03-04 11:21:00,
2013-03-04 06:31:00,14.9,9.0,30.14,WNW,292,1.0,3.0,77,0.00,,,-99.99,WeatherLink 5.7,2013-03-04 11:31:00,
2013-03-04 06:41:00,14.8,8.9,30.14,WNW,292,0.0,3.0,77,0.00,,,-99.99,WeatherLink 5.7,2013-03-04 11:41:00,
2013-03-04 06:51:00,14.8,8.9,30.14,WNW,292,0.0,3.0,77,0.00,,,-99.99,WeatherLink 5.7,2013-03-04 11:51:00,
2013-03-04 07:01:00,14.7,8.8,30.14,WNW,292,1.0,3.0,77,0.00,,,-99.99,WeatherLink 5.7,2013-03-04 12:01:00,
2013-03-04 07:11:00,14.7,8.5,30.14,WNW,292,0.0,2.0,76,0.00,,,-99.99,WeatherLink 5.7,2013-03-04 12:11:00,
2013-03-04 07:21:00,14.6,8.4,30.14,WNW,292,0.0,3.0,76,0.00,,,-99.99,WeatherLink 5.7,2013-03-04 12:21:00,
2013-03-04 07:31:00,14.7,8.8,30.14,WNW,292,1.0,2.0,77,0.00,,,-99.99,WeatherLink 5.7,2013-03-04 12:31:00,
2013-03-04 07:41:00,15.0,9.1,30.15,WNW,292,2.0,4.0,77,0.00,,,-99.99,WeatherLink 5.7,2013-03-04 12:41:00,
2013-03-04 07:51:00,15.6,10.0,30.15,WNW,292,2.0,5.0,78,0.00,,,-99.99,WeatherLink 5.7,2013-03-04 12:51:00,
2013-03-04 08:01:00,16.6,10.9,30.15,WNW,292,2.0,6.0,78,0.00,,,-99.99,WeatherLink 5.7,2013-03-04 13:01:00,
2013-03-04 08:11:00,17.6,11.6,30.15,WNW,292,3.0,7.0,77,0.00,,,-99.99,WeatherLink 5.7,2013-03-04 13:11:00,
2013-03-04 08:21:00,18.5,12.2,30.15,NNW,337,3.0,7.0,76,0.00,,,-99.99,WeatherLink 5.7,2013-03-04 13:21:00,
2013-03-04 08:31:00,19.2,12.3,30.15,NNW,337,4.0,7.0,74,0.00,,,-99.99,WeatherLink 5.7,2013-03-04 13:31:00,
2013-03-04 08:41:00,20.2,12.9,30.15,NNW,337,5.0,7.0,73,0.00,,,-99.99,WeatherLink 5.7,2013-03-04 13:41:00,
2013-03-04 08:51:00,21.4,13.5,30.16,NNW,337,3.0,6.0,71,0.00,,,-99.99,WeatherLink 5.7,2013-03-04 13:51:00,
2013-03-04 09:01:00,22.3,14.0,30.16,NNW,337,2.0,4.0,70,0.00,,,-99.99,WeatherLink 5.7,2013-03-04 14:01:00,
2013-03-04 09:11:00,23.4,14.4,30.16,NNW,337,2.0,6.0,68,0.00,,,-99.99,WeatherLink 5.7,2013-03-04 14:11:00,
2013-03-04 09:21:00,24.4,15.0,30.16,NNW,337,2.0,6.0,67,0.00,,,-99.99,WeatherLink 5.7,2013-03-04 14:21:00,
2013-03-04 09:31:00,25.5,15.4,30.16,NW,315,3.0,6.0,65,0.00,,,-99.99,WeatherLink 5.7,2013-03-04 14:31:00,
2013-03-04 09:41:00,26.6,16.1,30.16,West,270,2.0,6.0,64,0.00,,,-99.99,WeatherLink 5.7,2013-03-04 14:41:00,
2013-03-04 09:51:00,27.9,16.6,30.16,NW,315,2.0,6.0,62,0.00,,,-99.99,WeatherLink 5.7,2013-03-04 14:51:00,
2013-03-04 10:01:00,28.5,17.1,30.15,WNW,292,3.0,7.0,62,0.00,,,-99.99,WeatherLink 5.7,2013-03-04 15:01:00,
2013-03-04 10:11:00,29.3,16.7,30.15,NW,315,4.0,8.0,59,0.00,,,-99.99,WeatherLink 5.7,2013-03-04 15:11:00,
2013-03-04 10:21:00,29.7,16.3,30.15,NW,315,4.0,9.0,57,0.00,,,-99.99,WeatherLink 5.7,2013-03-04 15:21:00,
2013-03-04 10:31:00,30.0,15.8,30.15,NW,315,5.0,9.0,55,0.00,,,-99.99,WeatherLink 5.7,2013-03-04 15:31:00,
2013-03-04 10:41:00,30.2,15.5,30.16,NW,315,6.0,10.0,54,0.00,,,-99.99,WeatherLink 5.7,2013-03-04 15:41:00,
2013-03-04 10:51:00,30.5,15.4,30.16,NW,315,5.0,9.0,53,0.00,,,-99.99,WeatherLink 5.7,2013-03-04 15:51:00,
2013-03-04 11:01:00,31.2,15.6,30.15,NW,315,5.0,9.0,52,0.00,,,-99.99,WeatherLink 5.7,2013-03-04 16:01:00,
2013-03-04 11:11:00,32.1,16.0,30.15,NW,315,5.0,9.0,51,0.00,,,-99.99,WeatherLink 5.7,2013-03-04 16:11:00,
2013-03-04 11:21:00,32.5,15.9,30.15,NW,315,5.0,9.0,50,0.00,,,-99.99,WeatherLink 5.7,2013-03-04 16:21:00,
2013-03-04 11:31:00,32.6,16.4,30.15,WNW,292,5.0,11.0,51,0.00,,,-99.99,WeatherLink 5.7,2013-03-04 16:31:00,
2013-03-04 11:41:00,32.8,16.2,30.14,NW,315,4.0,8.0,50,0.00,,,-99.99,WeatherLink 5.7,2013-03-04 16:41:00,
2013-03-04 11:51:00,33.1,15.0,30.14,WNW,292,3.0,8.0,47,0.00,,,-99.99,WeatherLink 5.7,2013-03-04 16:51:00,
2013-03-04 12:01:00,32.8,15.7,30.15,WNW,292,4.0,9.0,49,0.00,,,-99.99,WeatherLink 5.7,2013-03-04 17:01:00,
2013-03-04 12:11:00,33.4,16.3,30.14,WNW,292,3.0,7.0,49,0.00,,,-99.99,WeatherLink 5.7,2013-03-04 17:11:00,
2013-03-04 12:21:00,33.5,16.4,30.14,West,270,4.0,8.0,49,0.00,,,-99.99,WeatherLink 5.7,2013-03-04 17:21:00,
2013-03-04 12:31:00,33.8,16.2,30.14,WNW,292,1.0,5.0,48,0.00,,,-99.99,WeatherLink 5.7,2013-03-04 17:31:00,
2013-03-04 12:41:00,33.9,17.2,30.14,WNW,292,3.0,8.0,50,0.00,,,-99.99,WeatherLink 5.7,2013-03-04 17:41:00,
2013-03-04 12:51:00,34.1,15.9,30.13,NNW,337,1.0,6.0,47,0.00,,,-99.99,WeatherLink 5.7,2013-03-04 17:51:00,
2013-03-04 13:01:00,33.9,17.2,30.13,NW,315,2.0,6.0,50,0.00,,,-99.99,WeatherLink 5.7,2013-03-04 18:01:00,
2013-03-04 13:11:00,34.3,16.6,30.13,NW,315,1.0,5.0,48,0.00,,,-99.99,WeatherLink 5.7,2013-03-04 18:11:00,
2013-03-04 13:21:00,34.8,16.6,30.12,West,270,2.0,7.0,47,0.00,,,-99.99,WeatherLink 5.7,2013-03-04 18:21:00,
2013-03-04 13:31:00,35.2,17.9,30.12,West,270,2.0,6.0,49,0.00,,,-99.99,WeatherLink 5.7,2013-03-04 18:31:00,
2013-03-04 13:41:00,35.8,17.0,30.12,WNW,292,3.0,8.0,46,0.00,,,-99.99,WeatherLink 5.7,2013-03-04 18:41:00,
2013-03-04 13:51:00,35.9,17.6,30.12,West,270,3.0,8.0,47,0.00,,,-99.99,WeatherLink 5.7,2013-03-04 18:51:00,
2013-03-04 14:01:00,36.1,17.3,30.11,West,270,4.0,8.0,46,0.00,,,-99.99,WeatherLink 5.7,2013-03-04 19:01:00,
2013-03-04 14:11:00,35.9,17.1,30.11,West,270,3.0,8.0,46,0.00,,,-99.99,WeatherLink 5.7,2013-03-04 19:11:00,
2013-03-04 14:21:00,35.9,16.6,30.10,WNW,292,3.0,8.0,45,0.00,,,-99.99,WeatherLink 5.7,2013-03-04 19:21:00,
2013-03-04 14:31:00,36.1,16.3,30.11,WNW,292,2.0,6.0,44,0.00,,,-99.99,WeatherLink 5.7,2013-03-04 19:31:00,
2013-03-04 14:41:00,36.2,16.9,30.10,WNW,292,3.0,8.0,45,0.00,,,-99.99,WeatherLink 5.7,2013-03-04 19:41:00,
2013-03-04 14:51:00,35.9,15.5,30.10,WSW,247,3.0,7.0,43,0.00,,,-99.99,WeatherLink 5.7,2013-03-04 19:51:00,
2013-03-04 15:01:00,35.4,15.6,30.10,West,270,4.0,8.0,44,0.00,,,-99.99,WeatherLink 5.7,2013-03-04 20:01:00,
2013-03-04 15:11:00,34.7,16.5,30.10,WNW,292,4.0,13.0,47,0.00,,,-99.99,WeatherLink 5.7,2013-03-04 20:11:00,
2013-03-04 15:21:00,34.4,15.7,30.10,West,270,3.0,7.0,46,0.00,,,-99.99,WeatherLink 5.7,2013-03-04 20:21:00,
2013-03-04 15:31:00,34.3,15.6,30.10,WNW,292,3.0,9.0,46,0.00,,,-99.99,WeatherLink 5.7,2013-03-04 20:31:00,
2013-03-04 15:41:00,34.2,15.0,30.10,WNW,292,3.0,6.0,45,0.00,,,-99.99,WeatherLink 5.7,2013-03-04 20:41:00,
2013-03-04 15:51:00,34.0,14.3,30.10,WNW,292,4.0,7.0,44,0.00,,,-99.99,WeatherLink 5.7,2013-03-04 20:51:00,
2013-03-04 16:01:00,33.8,15.2,30.10,NW,315,3.0,7.0,46,0.00,,,-99.99,WeatherLink 5.7,2013-03-04 21:01:00,
2013-03-04 16:11:00,33.7,15.1,30.10,WNW,292,4.0,9.0,46,0.00,,,-99.99,WeatherLink 5.7,2013-03-04 21:11:00,
2013-03-04 16:21:00,33.5,15.4,30.10,WNW,292,4.0,7.0,47,0.00,,,-99.99,WeatherLink 5.7,2013-03-04 21:21:00,
2013-03-04 16:31:00,33.5,14.9,30.10,WNW,292,3.0,8.0,46,0.00,,,-99.99,WeatherLink 5.7,2013-03-04 21:31:00,
2013-03-04 16:41:00,33.3,14.7,30.10,WNW,292,3.0,6.0,46,0.00,,,-99.99,WeatherLink 5.7,2013-03-04 21:41:00,
2013-03-04 16:51:00,33.0,14.4,30.10,WNW,292,3.0,7.0,46,0.00,,,-99.99,WeatherLink 5.7,2013-03-04 21:51:00,
2013-03-04 17:01:00,32.8,14.8,30.10,WNW,292,1.0,4.0,47,0.00,,,-99.99,WeatherLink 5.7,2013-03-04 22:01:00,
2013-03-04 17:11:00,32.5,15.0,30.10,WNW,292,2.0,6.0,48,0.00,,,-99.99,WeatherLink 5.7,2013-03-04 22:11:00,
2013-03-04 17:21:00,32.1,15.1,30.10,WNW,292,1.0,4.0,49,0.00,,,-99.99,WeatherLink 5.7,2013-03-04 22:21:00,
2013-03-04 17:31:00,31.7,15.2,30.10,WNW,292,1.0,3.0,50,0.00,,,-99.99,WeatherLink 5.7,2013-03-04 22:31:00,
2013-03-04 17:41:00,31.4,15.8,30.09,WNW,292,1.0,3.0,52,0.00,,,-99.99,WeatherLink 5.7,2013-03-04 22:41:00,
2013-03-04 17:51:00,31.0,15.0,30.09,WNW,292,0.0,2.0,51,0.00,,,-99.99,WeatherLink 5.7,2013-03-04 22:51:00,
2013-03-04 18:01:00,30.6,15.5,30.09,North,-999,0.0,0.0,53,0.00,,,-99.99,WeatherLink 5.7,2013-03-04 23:01:00,
2013-03-04 18:11:00,30.2,15.5,30.09,North,-999,0.0,0.0,54,0.00,,,-99.99,WeatherLink 5.7,2013-03-04 23:11:00,
2013-03-04 18:21:00,29.7,15.1,30.09,North,-999,0.0,0.0,54,0.00,,,-99.99,WeatherLink 5.7,2013-03-04 23:21:00,
2013-03-04 18:31:00,29.2,14.6,30.09,North,-999,0.0,1.0,54,0.00,,,-99.99,WeatherLink 5.7,2013-03-04 23:31:00,
2013-03-04 18:41:00,28.8,14.6,30.09,North,-999,0.0,0.0,55,0.00,,,-99.99,WeatherLink 5.7,2013-03-04 23:41:00,
2013-03-04 18:51:00,28.4,14.3,30.09,North,-999,0.0,0.0,55,0.00,,,-99.99,WeatherLink 5.7,2013-03-04 23:51:00,
2013-03-04 19:01:00,28.0,15.5,30.09,North,-999,0.0,0.0,59,0.00,,,-99.99,WeatherLink 5.7,2013-03-05 00:01:00,
2013-03-04 19:11:00,27.6,15.1,30.09,North,-999,0.0,0.0,59,0.00,,,-99.99,WeatherLink 5.7,2013-03-05 00:11:00,
2013-03-04 19:21:00,27.2,14.8,30.09,North,-999,0.0,0.0,59,0.00,,,-99.99,WeatherLink 5.7,2013-03-05 00:21:00,
2013-03-04 19:31:00,26.9,14.9,30.09,North,-999,0.0,0.0,60,0.00,,,-99.99,WeatherLink 5.7,2013-03-05 00:31:00,
2013-03-04 19:41:00,26.6,14.2,30.09,North,-999,0.0,0.0,59,0.00,,,-99.99,WeatherLink 5.7,2013-03-05 00:41:00,
2013-03-04 19:51:00,26.4,15.5,30.09,North,-999,0.0,0.0,63,0.00,,,-99.99,WeatherLink 5.7,2013-03-05 00:51:00,
2013-03-04 20:01:00,26.2,15.3,30.10,North,-999,0.0,0.0,63,0.00,,,-99.99,WeatherLink 5.7,2013-03-05 01:01:00,
2013-03-04 20:11:00,25.9,15.0,30.09,North,-999,0.0,0.0,63,0.00,,,-99.99,WeatherLink 5.7,2013-03-05 01:11:00,
2013-03-04 20:21:00,25.7,15.6,30.09,WNW,292,1.0,3.0,65,0.00,,,-99.99,WeatherLink 5.7,2013-03-05 01:21:00,
2013-03-04 20:31:00,25.5,16.1,30.09,WNW,292,0.0,2.0,67,0.00,,,-99.99,WeatherLink 5.7,2013-03-05 01:31:00,
2013-03-04 20:41:00,25.3,15.9,30.09,North,-999,0.0,0.0,67,0.00,,,-99.99,WeatherLink 5.7,2013-03-05 01:41:00,
2013-03-04 20:51:00,25.2,15.8,30.10,North,-999,0.0,0.0,67,0.00,,,-99.99,WeatherLink 5.7,2013-03-05 01:51:00,
2013-03-04 21:01:00,25.0,16.3,30.10,North,-999,0.0,0.0,69,0.00,,,-99.99,WeatherLink 5.7,2013-03-05 02:01:00,
2013-03-04 21:11:00,24.8,16.1,30.10,North,-999,0.0,0.0,69,0.00,,,-99.99,WeatherLink 5.7,2013-03-05 02:11:00,
2013-03-04 21:21:00,24.7,16.0,30.10,North,-999,0.0,0.0,69,0.00,,,-99.99,WeatherLink 5.7,2013-03-05 02:21:00,
2013-03-04 21:31:00,24.7,16.0,30.10,WNW,292,0.0,1.0,69,0.00,,,-99.99,WeatherLink 5.7,2013-03-05 02:31:00,
2013-03-04 21:41:00,24.7,16.0,30.10,North,-999,0.0,0.0,69,0.00,,,-99.99,WeatherLink 5.7,2013-03-05 02:41:00,
2013-03-04 21:51:00,24.6,15.9,30.10,North,-999,0.0,0.0,69,0.00,,,-99.99,WeatherLink 5.7,2013-03-05 02:51:00,
2013-03-04 22:01:00,24.5,16.1,30.10,North,-999,0.0,0.0,70,0.00,,,-99.99,WeatherLink 5.7,2013-03-05 03:01:00,
2013-03-04 22:11:00,24.4,16.3,30.10,North,-999,0.0,1.0,71,0.00,,,-99.99,WeatherLink 5.7,2013-03-05 03:11:00,
2013-03-04 22:21:00,24.7,17.3,30.10,North,-999,0.0,0.0,73,0.00,,,-99.99,WeatherLink 5.7,2013-03-05 03:21:00,
2013-03-04 22:31:00,25.4,18.3,30.10,North,-999,0.0,0.0,74,0.00,,,-99.99,WeatherLink 5.7,2013-03-05 03:31:00,
2013-03-04 22:41:00,25.8,19.0,30.11,WNW,292,1.0,3.0,75,0.00,,,-99.99,WeatherLink 5.7,2013-03-05 03:41:00,
2013-03-04 22:51:00,25.8,18.7,30.11,WNW,292,1.0,3.0,74,0.00,,,-99.99,WeatherLink 5.7,2013-03-05 03:51:00,
2013-03-04 23:01:00,25.7,18.6,30.11,WNW,292,1.0,3.0,74,0.00,,,-99.99,WeatherLink 5.7,2013-03-05 04:01:00,
2013-03-04 23:11:00,25.5,18.4,30.12,WNW,292,1.0,2.0,74,0.00,,,-99.99,WeatherLink 5.7,2013-03-05 04:11:00,
2013-03-04 23:21:00,25.5,18.7,30.12,WNW,292,1.0,3.0,75,0.00,,,-99.99,WeatherLink 5.7,2013-03-05 04:21:00,
2013-03-04 23:31:00,25.3,18.5,30.12,WNW,292,1.0,3.0,75,0.00,,,-99.99,WeatherLink 5.7,2013-03-05 04:31:00,
2013-03-04 23:41:00,25.1,17.7,30.12,NW,315,1.0,3.0,73,0.00,,,-99.99,WeatherLink 5.7,2013-03-05 04:41:00,
2013-03-04 23:51:00,24.9,17.5,30.13,North,-999,0.0,0.0,73,0.00,,,-99.99,WeatherLink 5.7,2013-03-05 04:51:00,